Location: Beuvrequen
(50.8014°N, 1.6652°E)
Time: 21:51:41
(UTC+00:00)

Spot 2 - Pass Details

Date: 16 October 2021
Orbit: 570 x 772 km, 98.7° (Epoch: 04 December)

Event Time Altitude Azimuth Distance (km) Brightness Sun altitude
Rises 18:12:30 0° 161° (SSE) 2,768 7.2 -12.4°
Reaches altitude 10° 18:14:36 10° 161° (SSE) 1,884 6.3 -12.7°
Maximum altitude 18:18:39 84° 74° (ENE) 600 3.9 -13.4°
Drops below altitude 10° 18:22:55 10° 346° (NNW) 1,971 6.9 -14.1°
Sets 18:25:09 0° 346° (NNW) 2,909 7.7 -14.4°
